Time,TemperatureF,DewpointF,PressureIn,WindDirection,WindDirectionDegrees,WindSpeedMPH,WindSpeedGustMPH,Humidity,HourlyPrecipIn,Conditions,Clouds,dailyrainin,SoftwareType,DateUTC
2013-05-02 00:00:00,50.2,42.6,30.39,SE,139,2.0,2.0,75,0.00,,,0.00,Wunderground v.1.15,2013-05-02 04:00:00,
2013-05-02 00:01:00,50.1,42.5,30.39,SE,139,2.0,2.0,75,0.00,,,0.00,Wunderground v.1.15,2013-05-02 04:01:00,
2013-05-02 00:02:00,50.1,42.5,30.39,SE,139,2.0,2.0,75,0.00,,,0.00,Wunderground v.1.15,2013-05-02 04:02:00,
2013-05-02 00:03:00,50.0,42.4,30.39,SE,139,2.0,2.0,75,0.00,,,0.00,Wunderground v.1.15,2013-05-02 04:03:00,
2013-05-02 00:05:00,49.9,42.3,30.39,SE,139,1.0,2.0,75,0.00,,,0.00,Wunderground v.1.15,2013-05-02 04:05:00,
2013-05-02 00:10:00,49.8,42.2,30.39,SE,139,1.0,1.0,75,0.00,,,0.00,Wunderground v.1.15,2013-05-02 04:10:00,
2013-05-02 00:15:00,49.7,42.1,30.39,SE,139,1.0,2.0,75,0.00,,,0.00,Wunderground v.1.15,2013-05-02 04:15:00,
2013-05-02 00:17:00,49.7,42.1,30.39,SSE,148,1.0,2.0,75,0.00,,,0.00,Wunderground v.1.15,2013-05-02 04:17:00,
2013-05-02 00:23:00,49.7,42.1,30.39,SE,145,2.0,2.0,75,0.00,,,0.00,Wunderground v.1.15,2013-05-02 04:23:00,
2013-05-02 00:29:00,49.6,42.0,30.39,SE,140,2.0,2.0,75,0.00,,,0.00,Wunderground v.1.15,2013-05-02 04:29:00,
2013-05-02 00:35:00,49.5,41.9,30.39,SE,136,2.0,4.0,75,0.00,,,0.00,Wunderground v.1.15,2013-05-02 04:35:00,
2013-05-02 00:41:00,49.4,41.8,30.39,SE,132,2.0,3.0,75,0.00,,,0.00,Wunderground v.1.15,2013-05-02 04:41:00,
2013-05-02 00:47:00,49.4,41.8,30.39,SE,138,2.0,5.0,75,0.00,,,0.00,Wunderground v.1.15,2013-05-02 04:47:00,
2013-05-02 00:53:00,49.4,41.8,30.39,SE,137,2.0,2.0,75,0.00,,,0.00,Wunderground v.1.15,2013-05-02 04:53:00,
2013-05-02 00:59:00,49.4,41.8,30.39,SSE,149,2.0,3.0,75,0.00,,,0.00,Wunderground v.1.15,2013-05-02 04:59:00,
2013-05-02 01:04:00,49.4,41.8,30.39,SSE,147,2.0,4.0,75,0.00,,,0.00,Wunderground v.1.15,2013-05-02 05:04:00,
2013-05-02 01:10:00,49.3,41.7,30.39,SSE,151,2.0,5.0,75,0.00,,,0.00,Wunderground v.1.15,2013-05-02 05:10:00,
2013-05-02 01:16:00,49.3,41.7,30.38,SSE,153,2.0,5.0,75,0.00,,,0.00,Wunderground v.1.15,2013-05-02 05:16:00,
2013-05-02 01:22:00,49.2,41.3,30.38,SE,128,2.0,2.0,74,0.00,,,0.00,Wunderground v.1.15,2013-05-02 05:22:00,
2013-05-02 01:28:00,49.3,41.4,30.38,SE,140,2.0,3.0,74,0.00,,,0.00,Wunderground v.1.15,2013-05-02 05:28:00,
2013-05-02 01:34:00,49.4,41.5,30.38,SE,131,3.0,4.0,74,0.00,,,0.00,Wunderground v.1.15,2013-05-02 05:34:00,
2013-05-02 01:40:00,49.3,41.4,30.37,SE,130,3.0,3.0,74,0.00,,,0.00,Wunderground v.1.15,2013-05-02 05:40:00,
2013-05-02 01:45:00,49.3,41.4,30.37,ESE,123,3.0,4.0,74,0.00,,,0.00,Wunderground v.1.15,2013-05-02 05:45:00,
2013-05-02 01:51:00,49.3,41.4,30.37,SE,124,3.0,3.0,74,0.00,,,0.00,Wunderground v.1.15,2013-05-02 05:51:00,
2013-05-02 01:56:00,49.2,41.3,30.37,SE,139,3.0,4.0,74,0.00,,,0.00,Wunderground v.1.15,2013-05-02 05:56:00,
2013-05-02 02:01:00,49.1,41.2,30.38,ESE,123,2.0,3.0,74,0.00,,,0.00,Wunderground v.1.15,2013-05-02 06:01:00,
2013-05-02 02:07:00,48.9,41.3,30.38,ESE,108,2.0,3.0,75,0.00,,,0.00,Wunderground v.1.15,2013-05-02 06:07:00,
2013-05-02 02:13:00,48.7,41.1,30.38,East,100,2.0,5.0,75,0.00,,,0.00,Wunderground v.1.15,2013-05-02 06:13:00,
2013-05-02 02:19:00,48.6,41.0,30.38,ESE,102,3.0,5.0,75,0.00,,,0.00,Wunderground v.1.15,2013-05-02 06:19:00,
2013-05-02 02:25:00,48.5,41.3,30.38,East,96,3.0,5.0,76,0.00,,,0.00,Wunderground v.1.15,2013-05-02 06:25:00,
2013-05-02 02:31:00,48.3,41.1,30.38,ESE,107,3.0,3.0,76,0.00,,,0.00,Wunderground v.1.15,2013-05-02 06:31:00,
2013-05-02 02:36:00,48.3,41.1,30.38,ESE,103,2.0,3.0,76,0.00,,,0.00,Wunderground v.1.15,2013-05-02 06:36:00,
2013-05-02 02:42:00,48.2,41.0,30.38,ESE,103,1.0,1.0,76,0.00,,,0.00,Wunderground v.1.15,2013-05-02 06:42:00,
2013-05-02 02:48:00,48.2,41.3,30.38,ESE,103,0.0,1.0,77,0.00,,,0.00,Wunderground v.1.15,2013-05-02 06:48:00,
2013-05-02 02:53:00,48.1,41.2,30.38,ESE,103,0.0,1.0,77,0.00,,,0.00,Wunderground v.1.15,2013-05-02 06:53:00,
2013-05-02 02:59:00,48.0,41.1,30.38,SSE,153,1.0,2.0,77,0.00,,,0.00,Wunderground v.1.15,2013-05-02 06:59:00,
2013-05-02 03:04:00,47.9,41.4,30.38,SE,142,1.0,3.0,78,0.00,,,0.00,Wunderground v.1.15,2013-05-02 07:04:00,
2013-05-02 03:10:00,47.8,41.3,30.38,SE,142,1.0,1.0,78,0.00,,,0.00,Wunderground v.1.15,2013-05-02 07:10:00,
2013-05-02 03:16:00,47.7,41.2,30.38,SE,142,1.0,2.0,78,0.00,,,0.00,Wunderground v.1.15,2013-05-02 07:16:00,
2013-05-02 03:22:00,47.6,41.4,30.38,SE,145,1.0,1.0,79,0.00,,,0.00,Wunderground v.1.15,2013-05-02 07:22:00,
2013-05-02 03:28:00,47.5,41.3,30.38,SE,146,1.0,4.0,79,0.00,,,0.00,Wunderground v.1.15,2013-05-02 07:28:00,
2013-05-02 03:34:00,47.3,41.1,30.38,SE,134,1.0,2.0,79,0.00,,,0.00,Wunderground v.1.15,2013-05-02 07:34:00,
2013-05-02 03:40:00,47.2,41.3,30.38,SE,144,1.0,1.0,80,0.00,,,0.00,Wunderground v.1.15,2013-05-02 07:40:00,
2013-05-02 03:46:00,47.0,41.1,30.38,SE,144,1.0,2.0,80,0.00,,,0.00,Wunderground v.1.15,2013-05-02 07:46:00,
2013-05-02 03:52:00,46.9,41.4,30.37,SE,144,1.0,1.0,81,0.00,,,0.00,Wunderground v.1.15,2013-05-02 07:52:00,
2013-05-02 03:58:00,46.7,41.2,30.37,SE,144,1.0,1.0,81,0.00,,,0.00,Wunderground v.1.15,2013-05-02 07:58:00,
2013-05-02 04:03:00,46.5,41.3,30.37,SE,144,1.0,2.0,82,0.00,,,0.00,Wunderground v.1.15,2013-05-02 08:03:00,
2013-05-02 04:09:00,46.4,41.5,30.37,SE,144,2.0,2.0,83,0.00,,,0.00,Wunderground v.1.15,2013-05-02 08:09:00,
2013-05-02 04:15:00,46.2,41.3,30.38,SE,144,1.0,2.0,83,0.00,,,0.00,Wunderground v.1.15,2013-05-02 08:15:00,
2013-05-02 04:20:00,46.2,41.3,30.38,SE,144,1.0,2.0,83,0.00,,,0.00,Wunderground v.1.15,2013-05-02 08:20:00,
2013-05-02 04:25:00,46.1,41.2,30.37,SE,144,1.0,2.0,83,0.00,,,0.00,Wunderground v.1.15,2013-05-02 08:25:00,
2013-05-02 04:31:00,45.9,41.3,30.37,SE,144,1.0,1.0,84,0.00,,,0.00,Wunderground v.1.15,2013-05-02 08:31:00,
2013-05-02 04:36:00,45.8,41.2,30.37,SE,144,0.0,1.0,84,0.00,,,0.00,Wunderground v.1.15,2013-05-02 08:36:00,
2013-05-02 04:42:00,45.7,41.1,30.37,SE,144,0.0,0.0,84,0.00,,,0.00,Wunderground v.1.15,2013-05-02 08:42:00,
2013-05-02 04:48:00,45.6,41.0,30.37,SE,144,0.0,0.0,84,0.00,,,0.00,Wunderground v.1.15,2013-05-02 08:48:00,
2013-05-02 04:53:00,45.5,40.9,30.37,SE,144,0.0,0.0,84,0.00,,,0.00,Wunderground v.1.15,2013-05-02 08:53:00,
2013-05-02 04:58:00,45.4,40.8,30.37,SE,144,0.0,1.0,84,0.00,,,0.00,Wunderground v.1.15,2013-05-02 08:58:00,
2013-05-02 05:04:00,45.2,40.7,30.37,SE,144,0.0,0.0,84,0.00,,,0.00,Wunderground v.1.15,2013-05-02 09:04:00,
2013-05-02 05:10:00,45.1,40.9,30.37,SE,144,0.0,0.0,85,0.00,,,0.00,Wunderground v.1.15,2013-05-02 09:10:00,
2013-05-02 05:16:00,45.0,40.8,30.37,SE,144,0.0,0.0,85,0.00,,,0.00,Wunderground v.1.15,2013-05-02 09:16:00,
2013-05-02 05:21:00,44.9,40.7,30.37,SE,144,0.0,0.0,85,0.00,,,0.00,Wunderground v.1.15,2013-05-02 09:21:00,
2013-05-02 05:27:00,44.7,40.8,30.37,SE,144,0.0,0.0,86,0.00,,,0.00,Wunderground v.1.15,2013-05-02 09:27:00,
2013-05-02 05:33:00,44.5,40.6,30.38,SE,144,0.0,0.0,86,0.00,,,0.00,Wunderground v.1.15,2013-05-02 09:33:00,
2013-05-02 05:39:00,44.5,40.6,30.37,SE,144,0.0,2.0,86,0.00,,,0.00,Wunderground v.1.15,2013-05-02 09:39:00,
2013-05-02 05:44:00,44.4,40.8,30.37,SE,144,1.0,2.0,87,0.00,,,0.00,Wunderground v.1.15,2013-05-02 09:44:00,
2013-05-02 05:51:00,44.5,41.2,30.38,SE,144,1.0,1.0,88,0.00,,,0.00,Wunderground v.1.15,2013-05-02 09:51:00,
2013-05-02 05:56:00,44.5,41.2,30.38,SE,144,0.0,1.0,88,0.00,,,0.00,Wunderground v.1.15,2013-05-02 09:56:00,
2013-05-02 06:02:00,44.6,41.3,30.38,SE,144,0.0,0.0,88,0.00,,,0.00,Wunderground v.1.15,2013-05-02 10:02:00,
2013-05-02 06:08:00,44.5,40.9,30.39,SE,144,0.0,0.0,87,0.00,,,0.00,Wunderground v.1.15,2013-05-02 10:08:00,
2013-05-02 06:13:00,44.5,40.9,30.39,SE,144,0.0,0.0,87,0.00,,,0.00,Wunderground v.1.15,2013-05-02 10:13:00,
2013-05-02 06:19:00,44.5,40.9,30.39,SE,144,0.0,0.0,87,0.00,,,0.00,Wunderground v.1.15,2013-05-02 10:19:00,
2013-05-02 06:25:00,44.5,40.9,30.39,SE,144,0.0,0.0,87,0.00,,,0.00,Wunderground v.1.15,2013-05-02 10:25:00,
2013-05-02 06:31:00,44.4,40.8,30.39,SE,144,0.0,0.0,87,0.00,,,0.00,Wunderground v.1.15,2013-05-02 10:31:00,
2013-05-02 06:38:00,44.4,41.1,30.38,SE,144,0.0,0.0,88,0.00,,,0.00,Wunderground v.1.15,2013-05-02 10:38:00,
2013-05-02 06:43:00,44.5,41.2,30.39,SE,144,0.0,0.0,88,0.00,,,0.00,Wunderground v.1.15,2013-05-02 10:43:00,
2013-05-02 06:49:00,44.6,41.3,30.39,SE,144,0.0,1.0,88,0.00,,,0.00,Wunderground v.1.15,2013-05-02 10:49:00,
2013-05-02 06:54:00,44.7,41.4,30.39,SE,144,0.0,0.0,88,0.00,,,0.00,Wunderground v.1.15,2013-05-02 10:54:00,
2013-05-02 07:00:00,45.0,41.7,30.39,SE,144,0.0,0.0,88,0.00,,,0.00,Wunderground v.1.15,2013-05-02 11:00:00,
2013-05-02 07:06:00,45.4,42.1,30.39,SE,144,1.0,1.0,88,0.00,,,0.00,Wunderground v.1.15,2013-05-02 11:06:00,
2013-05-02 07:12:00,45.8,42.4,30.39,SE,139,1.0,2.0,88,0.00,,,0.00,Wunderground v.1.15,2013-05-02 11:12:00,
2013-05-02 07:18:00,46.2,42.5,30.39,SE,139,1.0,2.0,87,0.00,,,0.00,Wunderground v.1.15,2013-05-02 11:18:00,
2013-05-02 07:24:00,46.8,43.1,30.40,SE,129,1.0,3.0,87,0.00,,,0.00,Wunderground v.1.15,2013-05-02 11:24:00,
2013-05-02 07:29:00,47.3,43.3,30.40,SE,127,1.0,3.0,86,0.00,,,0.00,Wunderground v.1.15,2013-05-02 11:29:00,
2013-05-02 07:35:00,47.8,43.5,30.40,ESE,119,1.0,2.0,85,0.00,,,0.00,Wunderground v.1.15,2013-05-02 11:35:00,
2013-05-02 07:41:00,48.3,43.7,30.41,SE,130,1.0,1.0,84,0.00,,,0.00,Wunderground v.1.15,2013-05-02 11:41:00,
2013-05-02 07:46:00,48.6,43.7,30.41,SE,133,1.0,2.0,83,0.00,,,0.00,Wunderground v.1.15,2013-05-02 11:46:00,
2013-05-02 07:52:00,49.0,43.7,30.41,ESE,119,1.0,3.0,82,0.00,,,0.00,Wunderground v.1.15,2013-05-02 11:52:00,
2013-05-02 07:58:00,49.5,44.2,30.41,SE,140,1.0,3.0,82,0.00,,,0.00,Wunderground v.1.15,2013-05-02 11:58:00,
2013-05-02 08:03:00,49.7,43.8,30.41,SE,129,1.0,3.0,80,0.00,,,0.00,Wunderground v.1.15,2013-05-02 12:03:00,
2013-05-02 08:09:00,50.1,43.8,30.41,ESE,111,2.0,3.0,79,0.00,,,0.00,Wunderground v.1.15,2013-05-02 12:09:00,
2013-05-02 08:15:00,50.3,44.0,30.41,East,94,2.0,4.0,79,0.00,,,0.00,Wunderground v.1.15,2013-05-02 12:15:00,
2013-05-02 08:21:00,50.5,44.2,30.41,SE,140,3.0,3.0,79,0.00,,,0.00,Wunderground v.1.15,2013-05-02 12:21:00,
2013-05-02 08:26:00,50.9,44.3,30.41,ESE,105,3.0,5.0,78,0.00,,,0.00,Wunderground v.1.15,2013-05-02 12:26:00,
2013-05-02 08:32:00,51.2,44.2,30.41,ESE,114,3.0,4.0,77,0.00,,,0.00,Wunderground v.1.15,2013-05-02 12:32:00,
2013-05-02 08:38:00,51.5,44.2,30.41,SE,137,3.0,7.0,76,0.00,,,0.00,Wunderground v.1.15,2013-05-02 12:38:00,
2013-05-02 08:43:00,51.7,44.7,30.41,SSE,153,2.0,5.0,77,0.00,,,0.00,Wunderground v.1.15,2013-05-02 12:43:00,
2013-05-02 08:49:00,52.1,44.8,30.41,SE,128,3.0,5.0,76,0.00,,,0.00,Wunderground v.1.15,2013-05-02 12:49:00,
2013-05-02 08:55:00,52.3,45.0,30.41,SE,141,3.0,4.0,76,0.00,,,0.00,Wunderground v.1.15,2013-05-02 12:55:00,
2013-05-02 09:00:00,52.5,44.8,30.41,ESE,103,2.0,5.0,75,0.00,,,0.00,Wunderground v.1.15,2013-05-02 13:00:00,
2013-05-02 09:06:00,52.8,44.4,30.41,SE,136,3.0,5.0,73,0.00,,,0.00,Wunderground v.1.15,2013-05-02 13:06:00,
2013-05-02 09:12:00,53.0,44.9,30.41,SE,145,2.0,3.0,74,0.00,,,0.00,Wunderground v.1.15,2013-05-02 13:12:00,
2013-05-02 09:18:00,53.4,45.0,30.41,SSE,149,2.0,5.0,73,0.00,,,0.00,Wunderground v.1.15,2013-05-02 13:18:00,
2013-05-02 09:23:00,53.6,45.2,30.41,SE,142,3.0,3.0,73,0.00,,,0.00,Wunderground v.1.15,2013-05-02 13:23:00,
2013-05-02 09:28:00,54.0,44.4,30.41,SSE,154,3.0,3.0,70,0.00,,,0.00,Wunderground v.1.15,2013-05-02 13:28:00,
2013-05-02 09:34:00,54.2,44.2,30.41,South,180,2.0,3.0,69,0.00,,,0.00,Wunderground v.1.15,2013-05-02 13:34:00,
2013-05-02 09:39:00,54.6,44.6,30.41,SE,139,2.0,4.0,69,0.00,,,0.00,Wunderground v.1.15,2013-05-02 13:39:00,
2013-05-02 09:45:00,54.8,45.2,30.41,SSE,166,2.0,4.0,70,0.00,,,0.00,Wunderground v.1.15,2013-05-02 13:45:00,
2013-05-02 09:51:00,55.2,44.8,30.42,SSE,159,3.0,3.0,68,0.00,,,0.00,Wunderground v.1.15,2013-05-02 13:51:00,
2013-05-02 09:56:00,55.3,45.3,30.42,SSE,165,3.0,4.0,69,0.00,,,0.00,Wunderground v.1.15,2013-05-02 13:56:00,
2013-05-02 10:02:00,55.8,45.8,30.42,South,187,2.0,5.0,69,0.00,,,0.00,Wunderground v.1.15,2013-05-02 14:02:00,
2013-05-02 10:08:00,56.3,46.3,30.42,SE,129,2.0,6.0,69,0.00,,,0.00,Wunderground v.1.15,2013-05-02 14:08:00,
2013-05-02 10:14:00,56.6,46.5,30.42,South,182,3.0,4.0,69,0.00,,,0.00,Wunderground v.1.15,2013-05-02 14:14:00,
2013-05-02 10:20:00,56.9,46.1,30.42,SE,144,2.0,2.0,67,0.00,,,0.00,Wunderground v.1.15,2013-05-02 14:20:00,
2013-05-02 10:25:00,57.5,47.0,30.42,South,174,2.0,3.0,68,0.00,,,0.00,Wunderground v.1.15,2013-05-02 14:25:00,
2013-05-02 10:31:00,57.8,46.5,30.42,SE,140,2.0,3.0,66,0.00,,,0.00,Wunderground v.1.15,2013-05-02 14:31:00,
2013-05-02 10:37:00,58.3,46.2,30.42,ESE,117,3.0,4.0,64,0.00,,,0.00,Wunderground v.1.15,2013-05-02 14:37:00,
2013-05-02 10:43:00,58.4,45.8,30.42,SSE,157,4.0,7.0,63,0.00,,,0.00,Wunderground v.1.15,2013-05-02 14:43:00,
2013-05-02 10:48:00,58.3,46.6,30.42,SSE,160,4.0,7.0,65,0.00,,,0.00,Wunderground v.1.15,2013-05-02 14:48:00,
2013-05-02 10:53:00,58.8,47.5,30.42,East,92,2.0,4.0,66,0.00,,,0.00,Wunderground v.1.15,2013-05-02 14:53:00,
2013-05-02 10:59:00,59.1,46.1,30.42,SE,135,2.0,5.0,62,0.00,,,0.00,Wunderground v.1.15,2013-05-02 14:59:00,
2013-05-02 11:05:00,59.4,46.4,30.42,ESE,105,3.0,4.0,62,0.00,,,0.00,Wunderground v.1.15,2013-05-02 15:05:00,
2013-05-02 11:11:00,59.4,46.4,30.42,SE,132,3.0,3.0,62,0.00,,,0.00,Wunderground v.1.15,2013-05-02 15:11:00,
2013-05-02 11:17:00,59.9,47.7,30.42,East,88,2.0,5.0,64,0.00,,,0.00,Wunderground v.1.15,2013-05-02 15:17:00,
2013-05-02 11:23:00,60.0,46.5,30.42,ESE,122,3.0,7.0,61,0.00,,,0.00,Wunderground v.1.15,2013-05-02 15:23:00,
2013-05-02 11:29:00,60.1,46.2,30.42,SE,134,4.0,7.0,60,0.00,,,0.00,Wunderground v.1.15,2013-05-02 15:29:00,
2013-05-02 11:35:00,60.1,45.7,30.42,East,92,4.0,8.0,59,0.00,,,0.00,Wunderground v.1.15,2013-05-02 15:35:00,
2013-05-02 11:41:00,60.2,46.3,30.41,ESE,105,5.0,8.0,60,0.00,,,0.00,Wunderground v.1.15,2013-05-02 15:41:00,
2013-05-02 11:47:00,60.0,45.2,30.41,East,99,5.0,8.0,58,0.00,,,0.00,Wunderground v.1.15,2013-05-02 15:47:00,
2013-05-02 11:53:00,60.5,46.1,30.41,South,171,4.0,6.0,59,0.00,,,0.00,Wunderground v.1.15,2013-05-02 15:53:00,
2013-05-02 11:59:00,60.9,46.5,30.41,East,94,5.0,7.0,59,0.00,,,0.00,Wunderground v.1.15,2013-05-02 15:59:00,
2013-05-02 12:05:00,61.4,46.5,30.41,East,100,3.0,7.0,58,0.00,,,0.00,Wunderground v.1.15,2013-05-02 16:05:00,
2013-05-02 12:11:00,61.6,45.7,30.41,East,84,4.0,5.0,56,0.00,,,0.00,Wunderground v.1.15,2013-05-02 16:11:00,
2013-05-02 12:16:00,61.8,45.9,30.40,SE,144,5.0,7.0,56,0.00,,,0.00,Wunderground v.1.15,2013-05-02 16:16:00,
2013-05-02 12:22:00,62.3,47.3,30.40,SSE,151,4.0,8.0,58,0.00,,,0.00,Wunderground v.1.15,2013-05-02 16:22:00,
2013-05-02 12:28:00,63.1,48.1,30.40,SSE,158,4.0,9.0,58,0.00,,,0.00,Wunderground v.1.15,2013-05-02 16:28:00,
2013-05-02 12:33:00,63.6,47.1,30.40,SSW,198,4.0,5.0,55,0.00,,,0.00,Wunderground v.1.15,2013-05-02 16:33:00,
2013-05-02 12:39:00,63.9,48.4,30.40,SSE,167,4.0,11.0,57,0.00,,,0.00,Wunderground v.1.15,2013-05-02 16:39:00,
2013-05-02 12:44:00,64.2,48.6,30.39,SE,141,3.0,6.0,57,0.00,,,0.00,Wunderground v.1.15,2013-05-02 16:44:00,
2013-05-02 12:49:00,64.4,46.4,30.39,South,186,3.0,6.0,52,0.00,,,0.00,Wunderground v.1.15,2013-05-02 16:49:00,
2013-05-02 12:55:00,64.7,48.6,30.39,SSE,159,3.0,4.0,56,0.00,,,0.00,Wunderground v.1.15,2013-05-02 16:55:00,
2013-05-02 13:00:00,64.7,48.6,30.39,SSE,150,4.0,4.0,56,0.00,,,0.00,Wunderground v.1.15,2013-05-02 17:00:00,
2013-05-02 13:05:00,64.8,47.3,30.39,SSE,151,4.0,9.0,53,0.00,,,0.00,Wunderground v.1.15,2013-05-02 17:05:00,
2013-05-02 13:11:00,65.0,46.4,30.39,ESE,121,4.0,7.0,51,0.00,,,0.00,Wunderground v.1.15,2013-05-02 17:11:00,
2013-05-02 13:17:00,64.5,46.5,30.39,SE,138,4.0,7.0,52,0.00,,,0.00,Wunderground v.1.15,2013-05-02 17:17:00,
2013-05-02 13:22:00,65.0,48.4,30.39,South,180,4.0,4.0,55,0.00,,,0.00,Wunderground v.1.15,2013-05-02 17:22:00,
2013-05-02 13:27:00,65.8,47.2,30.38,South,170,3.0,4.0,51,0.00,,,0.00,Wunderground v.1.15,2013-05-02 17:27:00,
2013-05-02 13:33:00,66.3,48.7,30.38,ESE,120,3.0,4.0,53,0.00,,,0.00,Wunderground v.1.15,2013-05-02 17:33:00,
2013-05-02 13:38:00,66.3,47.6,30.38,ESE,105,3.0,7.0,51,0.00,,,0.00,Wunderground v.1.15,2013-05-02 17:38:00,
2013-05-02 13:44:00,66.3,46.6,30.38,East,100,4.0,6.0,49,0.00,,,0.00,Wunderground v.1.15,2013-05-02 17:44:00,
2013-05-02 13:49:00,65.4,46.3,30.38,East,91,5.0,8.0,50,0.00,,,0.00,Wunderground v.1.15,2013-05-02 17:49:00,
2013-05-02 13:55:00,66.1,47.4,30.38,South,173,4.0,5.0,51,0.00,,,0.00,Wunderground v.1.15,2013-05-02 17:55:00,
2013-05-02 14:01:00,67.0,47.7,30.38,SSE,159,3.0,3.0,50,0.00,,,0.00,Wunderground v.1.15,2013-05-02 18:01:00,
2013-05-02 14:07:00,67.6,47.8,30.38,SSE,159,3.0,6.0,49,0.00,,,0.00,Wunderground v.1.15,2013-05-02 18:07:00,
2013-05-02 14:12:00,68.0,47.0,30.38,ESE,118,3.0,7.0,47,0.00,,,0.00,Wunderground v.1.15,2013-05-02 18:12:00,
2013-05-02 14:17:00,68.3,48.9,30.38,South,185,3.0,7.0,50,0.00,,,0.00,Wunderground v.1.15,2013-05-02 18:17:00,
2013-05-02 14:23:00,68.6,48.1,30.38,South,184,4.0,6.0,48,0.00,,,0.00,Wunderground v.1.15,2013-05-02 18:23:00,
2013-05-02 14:28:00,68.7,47.6,30.38,SSE,155,4.0,6.0,47,0.00,,,0.00,Wunderground v.1.15,2013-05-02 18:28:00,
2013-05-02 14:34:00,68.8,47.7,30.37,SSW,207,3.0,5.0,47,0.00,,,0.00,Wunderground v.1.15,2013-05-02 18:34:00,
2013-05-02 14:39:00,68.8,47.2,30.37,SSW,196,3.0,5.0,46,0.00,,,0.00,Wunderground v.1.15,2013-05-02 18:39:00,
2013-05-02 14:45:00,68.6,47.0,30.37,SSE,167,3.0,5.0,46,0.00,,,0.00,Wunderground v.1.15,2013-05-02 18:45:00,
2013-05-02 14:51:00,69.0,47.4,30.37,SSE,153,3.0,3.0,46,0.00,,,0.00,Wunderground v.1.15,2013-05-02 18:51:00,
2013-05-02 14:56:00,69.1,45.7,30.37,South,182,2.0,3.0,43,0.00,,,0.00,Wunderground v.1.15,2013-05-02 18:56:00,
2013-05-02 15:02:00,69.4,47.7,30.37,South,173,2.0,5.0,46,0.00,,,0.00,Wunderground v.1.15,2013-05-02 19:02:00,
2013-05-02 15:07:00,69.7,46.8,30.36,SSW,192,3.0,5.0,44,0.00,,,0.00,Wunderground v.1.15,2013-05-02 19:07:00,
2013-05-02 15:13:00,69.9,47.6,30.36,SSE,167,3.0,5.0,45,0.00,,,0.00,Wunderground v.1.15,2013-05-02 19:13:00,
2013-05-02 15:19:00,70.1,48.4,30.36,South,177,3.0,5.0,46,0.00,,,0.00,Wunderground v.1.15,2013-05-02 19:19:00,
2013-05-02 15:25:00,70.0,47.1,30.36,SSE,167,3.0,4.0,44,0.00,,,0.00,Wunderground v.1.15,2013-05-02 19:25:00,
2013-05-02 15:31:00,70.2,48.4,30.35,SE,136,3.0,3.0,46,0.00,,,0.00,Wunderground v.1.15,2013-05-02 19:31:00,
2013-05-02 15:36:00,70.4,46.8,30.35,SSW,202,3.0,6.0,43,0.00,,,0.00,Wunderground v.1.15,2013-05-02 19:36:00,
2013-05-02 15:42:00,70.2,46.6,30.35,ESE,115,3.0,3.0,43,0.00,,,0.00,Wunderground v.1.15,2013-05-02 19:42:00,
2013-05-02 15:48:00,69.9,46.4,30.35,SE,137,3.0,5.0,43,0.00,,,0.00,Wunderground v.1.15,2013-05-02 19:48:00,
2013-05-02 15:53:00,69.9,45.8,30.35,SE,146,4.0,4.0,42,0.00,,,0.00,Wunderground v.1.15,2013-05-02 19:53:00,
2013-05-02 15:58:00,69.9,47.0,30.35,South,182,4.0,6.0,44,0.00,,,0.00,Wunderground v.1.15,2013-05-02 19:58:00,
2013-05-02 16:04:00,70.1,46.6,30.34,SE,145,3.0,8.0,43,0.00,,,0.00,Wunderground v.1.15,2013-05-02 20:04:00,
2013-05-02 16:10:00,70.4,47.4,30.34,South,178,4.0,5.0,44,0.00,,,0.00,Wunderground v.1.15,2013-05-02 20:10:00,
2013-05-02 16:16:00,70.2,46.0,30.34,East,101,3.0,9.0,42,0.00,,,0.00,Wunderground v.1.15,2013-05-02 20:16:00,
2013-05-02 16:21:00,70.1,45.3,30.34,SSE,155,4.0,4.0,41,0.00,,,0.00,Wunderground v.1.15,2013-05-02 20:21:00,
2013-05-02 16:27:00,70.3,46.1,30.34,SSW,207,4.0,9.0,42,0.00,,,0.00,Wunderground v.1.15,2013-05-02 20:27:00,
2013-05-02 16:32:00,70.2,45.4,30.33,South,189,4.0,8.0,41,0.00,,,0.00,Wunderground v.1.15,2013-05-02 20:32:00,
2013-05-02 16:38:00,70.2,45.4,30.34,South,182,4.0,8.0,41,0.00,,,0.00,Wunderground v.1.15,2013-05-02 20:38:00,
2013-05-02 16:44:00,69.8,43.7,30.34,SSE,148,3.0,6.0,39,0.00,,,0.00,Wunderground v.1.15,2013-05-02 20:44:00,
2013-05-02 16:51:00,70.1,44.6,30.34,SSE,155,4.0,5.0,40,0.00,,,0.00,Wunderground v.1.15,2013-05-02 20:51:00,
2013-05-02 16:56:00,70.2,45.4,30.33,SE,141,4.0,5.0,41,0.00,,,0.00,Wunderground v.1.15,2013-05-02 20:56:00,
2013-05-02 17:02:00,70.4,46.2,30.33,SSW,203,3.0,5.0,42,0.00,,,0.00,Wunderground v.1.15,2013-05-02 21:02:00,
2013-05-02 17:08:00,70.8,45.3,30.33,SSE,164,3.0,7.0,40,0.00,,,0.00,Wunderground v.1.15,2013-05-02 21:08:00,
2013-05-02 17:14:00,70.6,44.4,30.33,SSE,168,4.0,4.0,39,0.00,,,0.00,Wunderground v.1.15,2013-05-02 21:14:00,
2013-05-02 17:19:00,70.5,45.7,30.33,SSE,153,3.0,4.0,41,0.00,,,0.00,Wunderground v.1.15,2013-05-02 21:19:00,
2013-05-02 17:24:00,70.3,45.5,30.33,SW,225,3.0,8.0,41,0.00,,,0.00,Wunderground v.1.15,2013-05-02 21:24:00,
2013-05-02 17:29:00,70.6,46.4,30.33,South,175,3.0,8.0,42,0.00,,,0.00,Wunderground v.1.15,2013-05-02 21:29:00,
2013-05-02 17:35:00,70.7,45.2,30.33,ESE,120,3.0,4.0,40,0.00,,,0.00,Wunderground v.1.15,2013-05-02 21:35:00,
2013-05-02 17:41:00,70.3,46.1,30.33,SSE,157,3.0,4.0,42,0.00,,,0.00,Wunderground v.1.15,2013-05-02 21:41:00,
2013-05-02 17:46:00,70.1,45.3,30.32,SE,133,3.0,7.0,41,0.00,,,0.00,Wunderground v.1.15,2013-05-02 21:46:00,
2013-05-02 17:52:00,69.8,45.0,30.32,SE,130,4.0,6.0,41,0.00,,,0.00,Wunderground v.1.15,2013-05-02 21:52:00,
2013-05-02 17:58:00,69.6,45.5,30.32,SSE,153,5.0,6.0,42,0.00,,,0.00,Wunderground v.1.15,2013-05-02 21:58:00,
2013-05-02 18:04:00,69.8,45.7,30.32,SSE,148,3.0,5.0,42,0.00,,,0.00,Wunderground v.1.15,2013-05-02 22:04:00,
2013-05-02 18:09:00,69.9,46.4,30.32,South,184,3.0,5.0,43,0.00,,,0.00,Wunderground v.1.15,2013-05-02 22:09:00,
2013-05-02 18:14:00,70.0,45.2,30.32,South,174,3.0,4.0,41,0.00,,,0.00,Wunderground v.1.15,2013-05-02 22:14:00,
2013-05-02 18:20:00,69.9,46.4,30.31,SSE,162,2.0,4.0,43,0.00,,,0.00,Wunderground v.1.15,2013-05-02 22:20:00,
2013-05-02 18:26:00,69.9,45.8,30.31,South,187,2.0,4.0,42,0.00,,,0.00,Wunderground v.1.15,2013-05-02 22:26:00,
2013-05-02 18:31:00,70.0,45.8,30.31,SSE,163,2.0,2.0,42,0.00,,,0.00,Wunderground v.1.15,2013-05-02 22:31:00,
2013-05-02 18:36:00,70.3,46.7,30.31,SSE,148,2.0,3.0,43,0.00,,,0.00,Wunderground v.1.15,2013-05-02 22:36:00,
2013-05-02 18:42:00,70.4,46.8,30.31,ESE,103,2.0,4.0,43,0.00,,,0.00,Wunderground v.1.15,2013-05-02 22:42:00,
2013-05-02 18:47:00,70.2,46.6,30.31,SSE,157,2.0,4.0,43,0.00,,,0.00,Wunderground v.1.15,2013-05-02 22:47:00,
2013-05-02 18:53:00,70.3,46.1,30.31,SE,134,2.0,7.0,42,0.00,,,0.00,Wunderground v.1.15,2013-05-02 22:53:00,
2013-05-02 18:58:00,70.3,46.7,30.31,SE,134,1.0,7.0,43,0.00,,,0.00,Wunderground v.1.15,2013-05-02 22:58:00,
2013-05-02 19:04:00,70.5,46.9,30.30,SE,144,1.0,3.0,43,0.00,,,0.00,Wunderground v.1.15,2013-05-02 23:04:00,
2013-05-02 19:10:00,70.5,45.7,30.30,SSW,205,1.0,1.0,41,0.00,,,0.00,Wunderground v.1.15,2013-05-02 23:10:00,
2013-05-02 19:16:00,70.3,46.1,30.30,SSW,204,1.0,2.0,42,0.00,,,0.00,Wunderground v.1.15,2013-05-02 23:16:00,
2013-05-02 19:21:00,70.1,45.9,30.30,SSW,199,1.0,2.0,42,0.00,,,0.00,Wunderground v.1.15,2013-05-02 23:21:00,
2013-05-02 19:27:00,69.9,46.4,30.30,SSW,199,1.0,2.0,43,0.00,,,0.00,Wunderground v.1.15,2013-05-02 23:27:00,
2013-05-02 19:33:00,69.8,46.9,30.30,SSW,199,0.0,1.0,44,0.00,,,0.00,Wunderground v.1.15,2013-05-02 23:33:00,
2013-05-02 19:38:00,69.6,47.3,30.30,SSW,199,0.0,1.0,45,0.00,,,0.00,Wunderground v.1.15,2013-05-02 23:38:00,
2013-05-02 19:44:00,69.4,47.1,30.30,SSW,199,0.0,0.0,45,0.00,,,0.00,Wunderground v.1.15,2013-05-02 23:44:00,
2013-05-02 19:49:00,69.2,46.4,30.30,SSW,199,0.0,0.0,44,0.00,,,0.00,Wunderground v.1.15,2013-05-02 23:49:00,
2013-05-02 19:54:00,68.8,46.6,30.30,SSW,199,0.0,0.0,45,0.00,,,0.00,Wunderground v.1.15,2013-05-02 23:54:00,
2013-05-02 19:59:00,68.2,46.0,30.30,SSW,199,0.0,0.0,45,0.00,,,0.00,Wunderground v.1.15,2013-05-02 23:59:00,
2013-05-02 20:05:00,67.4,45.9,30.30,SSW,199,0.0,0.0,46,0.00,,,0.00,Wunderground v.1.15,2013-05-03 00:05:00,
2013-05-02 20:11:00,66.6,46.3,30.30,SSW,199,0.0,0.0,48,0.00,,,0.00,Wunderground v.1.15,2013-05-03 00:11:00,
2013-05-02 20:17:00,65.8,45.0,30.30,SSW,199,0.0,0.0,47,0.00,,,0.00,Wunderground v.1.15,2013-05-03 00:17:00,
2013-05-02 20:22:00,65.3,45.6,30.30,SSW,199,0.0,0.0,49,0.00,,,0.00,Wunderground v.1.15,2013-05-03 00:22:00,
2013-05-02 20:28:00,64.8,45.2,30.30,SSW,199,0.0,0.0,49,0.00,,,0.00,Wunderground v.1.15,2013-05-03 00:28:00,
2013-05-02 20:33:00,64.3,45.3,30.30,SSW,199,0.0,0.0,50,0.00,,,0.00,Wunderground v.1.15,2013-05-03 00:33:00,
2013-05-02 20:39:00,63.6,45.1,30.30,SSW,199,0.0,0.0,51,0.00,,,0.00,Wunderground v.1.15,2013-05-03 00:39:00,
2013-05-02 20:45:00,63.2,44.2,30.30,SSW,199,0.0,0.0,50,0.00,,,0.00,Wunderground v.1.15,2013-05-03 00:45:00,
2013-05-02 20:51:00,62.7,44.3,30.30,SSW,199,0.0,0.0,51,0.00,,,0.00,Wunderground v.1.15,2013-05-03 00:51:00,
2013-05-02 20:56:00,62.0,44.7,30.30,SSW,199,1.0,1.0,53,0.00,,,0.00,Wunderground v.1.15,2013-05-03 00:56:00,
2013-05-02 21:01:00,61.5,44.7,30.30,SSW,199,1.0,1.0,54,0.00,,,0.00,Wunderground v.1.15,2013-05-03 01:01:00,
2013-05-02 21:07:00,61.1,44.8,30.30,SSW,199,1.0,2.0,55,0.00,,,0.00,Wunderground v.1.15,2013-05-03 01:07:00,
2013-05-02 21:12:00,60.7,44.9,30.30,SSW,199,1.0,2.0,56,0.00,,,0.00,Wunderground v.1.15,2013-05-03 01:12:00,
2013-05-02 21:17:00,60.4,45.1,30.30,SSW,199,2.0,3.0,57,0.00,,,0.00,Wunderground v.1.15,2013-05-03 01:17:00,
2013-05-02 21:23:00,60.3,45.0,30.30,SSW,199,2.0,3.0,57,0.00,,,0.00,Wunderground v.1.15,2013-05-03 01:23:00,
2013-05-02 21:29:00,60.2,45.4,30.30,SSW,199,2.0,3.0,58,0.00,,,0.00,Wunderground v.1.15,2013-05-03 01:29:00,
2013-05-02 21:35:00,60.1,45.3,30.30,SSW,199,2.0,3.0,58,0.00,,,0.00,Wunderground v.1.15,2013-05-03 01:35:00,
2013-05-02 21:41:00,60.0,45.6,30.30,SSW,199,2.0,3.0,59,0.00,,,0.00,Wunderground v.1.15,2013-05-03 01:41:00,
2013-05-02 21:47:00,59.8,45.4,30.30,SSW,202,2.0,4.0,59,0.00,,,0.00,Wunderground v.1.15,2013-05-03 01:47:00,
2013-05-02 21:52:00,59.7,45.3,30.30,SW,230,3.0,4.0,59,0.00,,,0.00,Wunderground v.1.15,2013-05-03 01:52:00,
2013-05-02 21:58:00,59.5,45.6,30.30,WSW,242,3.0,4.0,60,0.00,,,0.00,Wunderground v.1.15,2013-05-03 01:58:00,
2013-05-02 22:04:00,59.3,45.4,30.30,WSW,240,3.0,5.0,60,0.00,,,0.00,Wunderground v.1.15,2013-05-03 02:04:00,
2013-05-02 22:09:00,59.1,45.7,30.30,WSW,244,3.0,5.0,61,0.00,,,0.00,Wunderground v.1.15,2013-05-03 02:09:00,
2013-05-02 22:15:00,58.9,45.5,30.29,SW,234,3.0,4.0,61,0.00,,,0.00,Wunderground v.1.15,2013-05-03 02:15:00,
2013-05-02 22:20:00,58.7,45.7,30.29,WSW,255,3.0,3.0,62,0.00,,,0.00,Wunderground v.1.15,2013-05-03 02:20:00,
2013-05-02 22:25:00,58.6,45.6,30.29,SW,215,4.0,4.0,62,0.00,,,0.00,Wunderground v.1.15,2013-05-03 02:25:00,
2013-05-02 22:31:00,58.4,45.8,30.29,SW,235,3.0,4.0,63,0.00,,,0.00,Wunderground v.1.15,2013-05-03 02:31:00,
2013-05-02 22:37:00,58.1,46.0,30.29,SW,224,3.0,5.0,64,0.00,,,0.00,Wunderground v.1.15,2013-05-03 02:37:00,
2013-05-02 22:42:00,57.8,45.7,30.29,SW,221,3.0,5.0,64,0.00,,,0.00,Wunderground v.1.15,2013-05-03 02:42:00,
2013-05-02 22:47:00,57.5,45.4,30.29,SW,229,3.0,5.0,64,0.00,,,0.00,Wunderground v.1.15,2013-05-03 02:47:00,
2013-05-02 22:52:00,57.2,45.5,30.29,WSW,245,4.0,5.0,65,0.00,,,0.00,Wunderground v.1.15,2013-05-03 02:52:00,
2013-05-02 22:58:00,56.9,45.3,30.29,SW,225,4.0,8.0,65,0.00,,,0.00,Wunderground v.1.15,2013-05-03 02:58:00,
2013-05-02 23:03:00,56.7,45.5,30.29,SW,236,4.0,5.0,66,0.00,,,0.00,Wunderground v.1.15,2013-05-03 03:03:00,
2013-05-02 23:09:00,56.4,45.6,30.29,SW,236,4.0,7.0,67,0.00,,,0.00,Wunderground v.1.15,2013-05-03 03:09:00,
2013-05-02 23:15:00,56.1,45.7,30.29,SW,234,4.0,5.0,68,0.00,,,0.00,Wunderground v.1.15,2013-05-03 03:15:00,
2013-05-02 23:21:00,55.8,46.2,30.29,WSW,238,4.0,4.0,70,0.00,,,0.00,Wunderground v.1.15,2013-05-03 03:21:00,
2013-05-02 23:27:00,55.6,46.3,30.29,SW,227,3.0,5.0,71,0.00,,,0.00,Wunderground v.1.15,2013-05-03 03:27:00,
2013-05-02 23:33:00,55.4,46.5,30.29,SW,223,3.0,6.0,72,0.00,,,0.00,Wunderground v.1.15,2013-05-03 03:33:00,
2013-05-02 23:39:00,55.2,46.7,30.29,WSW,248,4.0,6.0,73,0.00,,,0.00,Wunderground v.1.15,2013-05-03 03:39:00,
2013-05-02 23:44:00,55.0,46.5,30.29,WSW,246,4.0,5.0,73,0.00,,,0.00,Wunderground v.1.15,2013-05-03 03:44:00,
2013-05-02 23:50:00,54.8,46.7,30.28,WSW,250,4.0,5.0,74,0.00,,,0.00,Wunderground v.1.15,2013-05-03 03:50:00,
2013-05-02 23:56:00,54.7,46.6,30.29,WSW,255,5.0,6.0,74,0.00,,,0.00,Wunderground v.1.15,2013-05-03 03:56:00,